Location: Unspecified
(50.7693°N, 0.0000°E)
Time: 00:31:32
(UTC+00:00)

Vanguard 2 - Pass Details

Date: 24 June 2019
Orbit: 553 x 2938 km, 32.9° (Epoch: 22 July)

Event Time Altitude Azimuth Distance (km) Brightness Sun altitude
Rises 10:34:33 0° 243° (WSW) 3,586 10.9 57.8°
Reaches altitude 10° 10:37:29 10° 226° (SW) 2,939 10.7 58.1°
Maximum altitude 10:42:41 21° 181° (S) 2,743 11.1 58.6°
Drops below altitude 10° 10:49:47 10° 139° (SE) 4,192 12.0 59.2°
Sets 10:55:09 0° 126° (SE) 5,667 12.4 59.7°
